Location: Unspecified
(0.0000°N, 0.0000°E)
Time: 15:00:39
(UTC+01:00)

Amateur Radio Satellites - All Passes

Search period start: 08 December 2016 14:30
Search period end: 09 December 2016 14:30
Location: Unspecified, 0.0000°N, 0.0000°E

Satellite Date Start Highest point End Downlink Frequencies (MHz)
Time Altitude Azimuth
SRMSAT 08 Dec 14:30:47 14:31:46 10° 355° (N) 14:32:45 437.500
JUGNU 08 Dec 14:36:51 14:39:29 13° 10° (N) 14:42:07 437.505
O/OREOS (USA 219) 08 Dec 14:39:14 14:42:31 19° 105° (ESE) 14:45:46 437.305
ISS 08 Dec 14:41:30 14:42:27 11° 306° (NW) 14:43:25 145.825
Oscar 19 08 Dec 14:43:50 14:48:23 33° 257° (WSW) 14:52:57 437.125/150
AO-7 08 Dec 14:46:12 14:49:22 13° 72° (ENE) 14:52:32 29.400- 29.500
BEESAT 3 08 Dec 14:54:20 14:56:02 12° 68° (ENE) 14:57:43 437.485
AUBIESAT-1 08 Dec 14:57:43 15:01:34 36° 105° (ESE) 15:05:10 437.475
Gurwin Techsat 1B 08 Dec 14:58:31 15:03:43 55° 258° (WSW) 15:08:53 435.225
M-CUBED/EXP-1 PRIME 08 Dec 15:11:43 15:16:01 85° 105° (ESE) 15:20:01 437.505
ITAMSAT 1 08 Dec 15:17:15 15:22:03 37° 77° (ENE) 15:26:48 435.822/435.867
SWISSCUBE 08 Dec 15:21:19 15:26:03 78° 283° (WNW) 15:30:50 437.505
BEESAT 08 Dec 15:25:07 15:29:50 80° 283° (WNW) 15:34:36 436.000
BEESAT 2 08 Dec 15:28:21 15:30:24 14° 68° (ENE) 15:32:26 435.950
ITUPSAT 1 08 Dec 15:54:54 15:59:08 33° 282° (WNW) 16:03:24 437.325
MOZHAYETS 4 08 Dec 16:09:33 16:14:03 65° 102° (ESE) 16:18:36
O/OREOS (USA 219) 08 Dec 16:18:27 16:21:38 19° 284° (WNW) 16:24:48 437.305
SRMSAT 08 Dec 16:21:02 16:22:09 10° 6° (N) 16:23:15 437.500
KKS-1 08 Dec 16:22:29 16:26:22 30° 102° (ESE) 16:30:15 437.445
JUGNU 08 Dec 16:24:18 16:29:12 26° 18° (NNE) 16:34:04 437.505
STARS 08 Dec 16:24:35 16:25:27 10° 103° (ESE) 16:26:18 437.465
BEESAT 3 08 Dec 16:30:20 16:33:23 22° 248° (WSW) 16:36:27 437.485
AO-7 08 Dec 16:33:25 16:41:41 75° 254° (WSW) 16:49:56 29.400- 29.500
ITAMSAT 1 08 Dec 16:58:41 17:01:13 14° 257° (WSW) 17:03:44 435.822/435.867
BEESAT 2 08 Dec 17:04:55 17:07:55 20° 248° (WSW) 17:10:55 435.950
GOMX 1 08 Dec 17:43:35 17:46:25 17° 77° (ENE) 17:49:20 467.674
HORYU 2 08 Dec 17:48:42 17:53:06 54° 78° (ENE) 17:57:28 437.375
RS-15 08 Dec 17:51:26 18:02:40 46° 69° (ENE) 18:13:20 29.354- 29.394
CUBESAT XI-V 08 Dec 17:56:00 18:00:34 54° 282° (WNW) 18:05:10 437.345
STARS 08 Dec 17:57:39 18:01:31 31° 282° (WNW) 18:05:23 437.465
KKS-1 08 Dec 18:01:08 18:02:39 12° 283° (WNW) 18:04:10 437.445
SRMSAT 08 Dec 18:08:10 18:12:13 19° 15° (NNE) 18:16:16 437.500
JUGNU 08 Dec 18:12:31 18:18:24 68° 22° (NNE) 18:24:14 437.505
AIST 2 08 Dec 18:16:23 18:19:52 25° 68° (ENE) 18:23:20 435.215
BRITE-PL 08 Dec 18:20:04 18:23:53 36° 259° (WSW) 18:27:46 437.365/2234.400
SO-50 08 Dec 18:20:13 18:24:32 33° 112° (ESE) 18:28:51 436.795
CUTE-I 08 Dec 18:48:23 18:53:42 64° 77° (ENE) 18:59:01 437.470
LilacSat-2 08 Dec 18:54:30 18:58:23 82° 258° (WSW) 19:02:15 437.200
Cosmos 2504 08 Dec 19:00:47 19:05:43 18° 92° (E) 19:10:48 435.465 / 435.565
NOAA 15 08 Dec 19:02:48 19:08:03 75° 258° (WSW) 19:13:17 137.62
AIST 1 08 Dec 19:07:48 19:09:53 13° 94° (E) 19:11:57
Cubesat XI-IV 08 Dec 19:15:10 19:20:30 63° 257° (WSW) 19:25:48 437.490
DOVE 4 08 Dec 19:16:43 19:21:09 71° 259° (WSW) 19:25:51 437.250
NOAA 18 08 Dec 19:19:19 19:24:50 81° 77° (ENE) 19:30:22 137.9125
STRAND 1 08 Dec 19:21:17 19:25:32 27° 103° (ESE) 19:29:48 437.568
GOMX 1 08 Dec 19:21:17 19:24:16 18° 259° (W) 19:27:19 467.674
YUBILEINY 08 Dec 19:28:06 19:36:49 85° 93° (E) 19:45:31 435.215
Cosmos 2491 08 Dec 19:29:17 19:38:00 84° 267° (W) 19:46:47 435.465 / 435.565
CUTE 1.7 + AOD 2 08 Dec 19:39:51 19:42:42 18° 79° (ENE) 19:45:32 437.475
SRMSAT 08 Dec 19:56:07 20:01:44 44° 20° (NNE) 20:07:22 437.500
AIST 2 08 Dec 19:56:18 19:58:05 12° 248° (WSW) 19:59:51 435.215
CANX-2 08 Dec 19:57:16 20:01:15 39° 79° (ENE) 20:05:11 2200.000
HO-68 08 Dec 19:58:22 20:05:10 47° 75° (ENE) 20:11:55 435.675
JUGNU 08 Dec 20:01:52 20:07:26 43° 200° (SSW) 20:12:59 437.505
SO-50 08 Dec 20:02:31 20:04:46 13° 292° (WNW) 20:07:01 436.795
RS-15 08 Dec 20:04:36 20:14:35 33° 249° (WSW) 20:24:16 29.354- 29.394
CINEMA 3 08 Dec 20:15:34 20:20:15 69° 258° (WSW) 20:25:07 145.822/145.860
PHONESAT 2.4 08 Dec 20:16:48 20:19:28 68° 137° (SE) 20:22:08 2401.200-2431.200
CUBEBUG 2 08 Dec 20:16:49 20:20:25 21° 78° (ENE) 20:23:59 437.445
SEEDS 08 Dec 20:17:11 20:21:04 37° 79° (ENE) 20:24:55 437.485
CUSAT 1 08 Dec 20:22:08 20:25:36 16° 91° (E) 20:29:31 437.405
COMPASS 1 08 Dec 20:22:53 20:26:22 26° 79° (ENE) 20:29:48 437.405
AIST 1 08 Dec 20:43:56 20:47:10 21° 274° (W) 20:50:25
Cosmos 2504 08 Dec 20:51:05 20:58:35 51° 274° (W) 21:06:38 435.465 / 435.565
UWE-3 08 Dec 20:52:54 20:57:14 37° 78° (ENE) 21:01:31 435.000/436.395/437.385
STRAND 1 08 Dec 21:01:06 21:04:26 18° 283° (WNW) 21:07:47 437.568
PRISM 08 Dec 21:12:57 21:16:14 23° 102° (ESE) 21:19:31 437.425
CUTE 1.7 + AOD 2 08 Dec 21:15:24 21:18:16 18° 258° (WSW) 21:21:06 437.475
AAUSAT CUBESAT 2 08 Dec 21:24:41 21:28:39 47° 258° (WSW) 21:32:35 437.432
ZACube-1 08 Dec 21:27:39 21:32:12 61° 78° (ENE) 21:36:42 437.345
DANDE 08 Dec 21:33:33 21:36:45 19° 92° (E) 21:40:35 436.750
FUNcube-1 08 Dec 21:33:45 21:38:18 67° 78° (ENE) 21:42:49 145.935
SRMSAT 08 Dec 21:45:04 21:50:57 66° 201° (SSW) 21:56:51 437.500
HO-68 08 Dec 21:47:52 21:52:31 19° 255° (WSW) 21:57:11 435.675
JUGNU 08 Dec 21:52:51 21:56:48 18° 195° (SSW) 22:00:44 437.505
CUBEBUG 2 08 Dec 21:53:22 21:56:44 20° 258° (WSW) 22:00:07 437.445
DELFI C3 08 Dec 21:59:38 22:03:15 35° 79° (ENE) 22:06:50 145.870
COMPASS 1 08 Dec 22:00:28 22:01:37 11° 258° (WSW) 22:02:46 437.405
Oscar 11 08 Dec 22:01:16 22:05:28 51° 258° (WSW) 22:09:40 145.826/435.025
CUSAT 1 08 Dec 22:01:31 22:06:50 42° 262° (W) 22:13:29 437.405
PCSat 08 Dec 22:20:55 22:26:16 70° 70° (ENE) 22:31:39 145.827
HUMSAT D 08 Dec 22:31:39 22:35:47 48° 79° (ENE) 22:39:51 437.325/437.525
UWE-3 08 Dec 22:32:38 22:33:22 10° 258° (WSW) 22:34:07 435.000/436.395/437.385
UNISAT 6 08 Dec 22:34:36 22:38:41 47° 102° (ESE) 22:42:47 437.425
PRISM 08 Dec 22:49:12 22:51:15 13° 282° (WNW) 22:53:18 437.425
TIGRISAT 08 Dec 23:03:33 23:07:46 68° 282° (WNW) 23:12:00 435.000
ANTELSAT 08 Dec 23:05:49 23:09:59 58° 282° (WNW) 23:14:10 437.575/2403.000
DANDE 08 Dec 23:15:38 23:19:06 21° 258° (WSW) 23:23:21 436.750
POPSAT HIP 1 08 Dec 23:22:10 23:23:00 10° 102° (ESE) 23:23:50 437.405
JAS-2 08 Dec 23:28:38 23:33:49 35° 105° (ESE) 23:39:36 435.910
SRMSAT 08 Dec 23:35:28 23:40:19 26° 197° (SSW) 23:45:11 437.500
Cosmos 2499 08 Dec 23:44:14 23:49:35 19° 92° (E) 23:55:06 435.465 / 435.565
JUGNU 08 Dec 23:45:57 23:46:43 10° 185° (S) 23:47:29 437.505
50 SAT 08 Dec 23:56:55 23:57:25 10° 78° (ENE) 23:57:54 437.505
AO-85 09 Dec 00:03:08 00:07:42 29° 113° (ESE) 00:12:06 145.980
GONETS M04 09 Dec 00:07:26 00:14:41 29° 93° (E) 00:21:51
NANOSAT C BR1 09 Dec 00:11:23 00:15:29 59° 102° (ESE) 00:19:36 145.865
QB50P2 09 Dec 00:19:59 00:24:11 83° 279° (W) 00:28:22 145.880/145.840
POLYITAN 1 09 Dec 00:20:26 00:24:36 89° 296° (WNW) 00:28:48 437.675
AISAT 09 Dec 00:25:05 00:29:20 50° 78° (ENE) 00:33:36 437.250
ESTCUBE 1 09 Dec 00:30:47 00:35:01 43° 258° (WSW) 00:39:15 437.505/2401.250
DUCHIFAT 1 09 Dec 00:32:01 00:36:10 74° 281° (WNW) 00:40:20 145.980
QB50P1 09 Dec 00:32:35 00:36:41 58° 282° (WNW) 00:40:49 145.935-145.965
ISS 09 Dec 00:38:25 00:40:11 14° 54° (NE) 00:41:57 145.825
CUBEBUG 1 09 Dec 00:43:29 00:47:42 53° 258° (WSW) 00:51:56 437.445
POPSAT HIP 1 09 Dec 00:54:54 00:58:30 28° 282° (WNW) 01:02:06 437.405
VELOX 1 09 Dec 01:01:46 01:06:01 50° 258° (WSW) 01:10:16 145.980
DX 1 09 Dec 01:05:18 01:09:38 78° 79° (E) 01:13:57 434.975-435.025
UKube-1 09 Dec 01:06:48 01:11:00 54° 78° (ENE) 01:15:12 .
SPROUT 09 Dec 01:13:17 01:17:31 57° 258° (WSW) 01:21:43 437.525
JAS-2 09 Dec 01:15:03 01:18:45 18° 280° (W) 01:22:42 435.910
BUGSAT 1 09 Dec 01:17:19 01:21:18 55° 282° (WNW) 01:25:16 437.445
SRMSAT 09 Dec 01:27:37 01:30:12 13° 189° (S) 01:32:47 437.500
50 SAT 09 Dec 01:27:57 01:30:26 18° 258° (WSW) 01:32:55 437.505
Cosmos 2499 09 Dec 01:34:30 01:42:11 50° 274° (W) 01:50:25 435.465 / 435.565
JUGNU 09 Dec 01:36:07 01:36:55 10° 174° (S) 01:37:44 437.505
Oscar 19 09 Dec 01:38:11 01:42:57 37° 103° (ESE) 01:47:44 437.125/150
AO-85 09 Dec 01:44:15 01:47:55 19° 291° (WNW) 01:51:28 145.980
Gurwin Techsat 1B 09 Dec 01:58:00 02:02:26 27° 103° (ESE) 02:06:53 435.225
GONETS M04 09 Dec 02:03:22 02:11:06 36° 273° (W) 02:18:48
SWISSCUBE 09 Dec 02:09:54 02:10:34 10° 77° (ENE) 02:11:13 437.505
ISS 09 Dec 02:14:11 02:16:29 18° 234° (SW) 02:18:48 145.825
TISAT 1 09 Dec 02:24:41 02:28:50 57° 258° (WSW) 02:32:58 437.305
ITUPSAT 1 09 Dec 02:40:02 02:43:54 24° 78° (ENE) 02:47:45 437.325
BEESAT 3 09 Dec 02:46:28 02:48:00 12° 112° (ESE) 02:49:31 437.485
O/OREOS (USA 219) 09 Dec 02:49:27 02:53:24 31° 76° (ENE) 02:57:22 437.305
AUBIESAT-1 09 Dec 02:56:12 02:59:34 31° 73° (ENE) 03:03:09 437.475
AO-7 09 Dec 03:09:24 03:15:39 24° 107° (ESE) 03:21:52 29.400- 29.500
M-CUBED/EXP-1 PRIME 09 Dec 03:10:44 03:14:23 76° 75° (ENE) 03:18:21 437.505
Oscar 19 09 Dec 03:19:39 03:21:59 13° 283° (WNW) 03:24:20 437.125/150
BEESAT 2 09 Dec 03:21:35 03:23:35 14° 112° (ESE) 03:25:35 435.950
JUGNU 09 Dec 03:22:52 03:26:51 18° 165° (SSE) 03:30:50 437.505
Gurwin Techsat 1B 09 Dec 03:38:27 03:42:06 19° 283° (WNW) 03:45:47 435.225
SWISSCUBE 09 Dec 03:43:37 03:48:04 39° 257° (WSW) 03:52:29 437.505
BEESAT 09 Dec 03:47:18 03:51:46 40° 257° (WSW) 03:56:14 436.000
ITAMSAT 1 09 Dec 03:51:47 03:56:56 83° 282° (WNW) 04:02:07 435.822/435.867
ITUPSAT 1 09 Dec 04:18:20 04:21:27 17° 257° (WSW) 04:24:34 437.325
BEESAT 3 09 Dec 04:22:25 04:25:21 21° 292° (WNW) 04:28:18 437.485
MOZHAYETS 4 09 Dec 04:26:15 04:30:52 73° 258° (WSW) 04:35:26
O/OREOS (USA 219) 09 Dec 04:32:02 04:32:32 10° 255° (WSW) 04:33:03 437.305
STARS 09 Dec 04:33:38 04:36:14 15° 78° (ENE) 04:38:49 437.465
KKS-1 09 Dec 04:34:33 04:38:48 44° 78° (ENE) 04:43:02 437.445
CUBESAT XI-V 09 Dec 04:39:55 04:41:49 12° 78° (ENE) 04:43:42 437.345
BEESAT 2 09 Dec 04:58:19 05:01:06 19° 292° (WNW) 05:03:54 435.950
AO-7 09 Dec 05:00:09 05:08:01 47° 286° (WNW) 05:15:55 29.400- 29.500
SRMSAT 09 Dec 05:07:42 05:10:51 14° 169° (SSE) 05:14:00 437.500
BRITE-PL 09 Dec 05:07:47 05:12:29 27° 102° (ESE) 05:17:05 437.365/2234.400
JUGNU 09 Dec 05:10:37 05:16:13 43° 160° (SSE) 05:21:51 437.505
RS-15 09 Dec 05:33:35 05:43:29 37° 111° (ESE) 05:53:44 29.354- 29.394
CUTE-I 09 Dec 05:51:27 05:53:13 12° 103° (ESE) 05:54:58 437.470
HORYU 2 09 Dec 06:01:00 06:05:22 81° 100° (E) 06:09:48 437.375
NOAA 15 09 Dec 06:02:04 06:05:47 20° 103° (ESE) 06:09:32 137.62
DOVE 4 09 Dec 06:03:37 06:04:59 11° 101° (E) 06:06:21 437.250
GOMX 1 09 Dec 06:05:31 06:10:36 43° 101° (E) 06:15:27 467.674
YUBILEINY 09 Dec 06:08:02 06:13:53 20° 87° (E) 06:19:42 435.215
STARS 09 Dec 06:08:51 06:12:19 23° 258° (WSW) 06:15:46 437.465
Cosmos 2491 09 Dec 06:08:53 06:15:28 23° 93° (E) 06:21:59 435.465 / 435.565
AIST 2 09 Dec 06:14:31 06:18:04 30° 112° (ESE) 06:21:37 435.215
CUBESAT XI-V 09 Dec 06:14:54 06:18:55 30° 258° (WSW) 06:22:54 437.345
Cubesat XI-IV 09 Dec 06:15:54 06:20:09 25° 103° (ESE) 06:24:25 437.490
NOAA 18 09 Dec 06:25:16 06:28:53 18° 104° (ESE) 06:32:30 137.9125
SO-50 09 Dec 06:32:46 06:37:06 59° 68° (ENE) 06:41:29 436.795
BRITE-PL 09 Dec 06:46:14 06:50:37 23° 282° (WNW) 06:54:58 437.365/2234.400
LilacSat-2 09 Dec 06:48:55 06:52:40 80° 102° (ESE) 06:56:27 437.200
SRMSAT 09 Dec 06:55:25 07:00:38 30° 162° (SSE) 07:05:51 437.500
JUGNU 09 Dec 06:59:23 07:05:17 69° 339° (NNW) 07:11:15 437.505
Cosmos 2504 09 Dec 07:12:00 07:18:19 25° 85° (E) 07:24:17 435.465 / 435.565
AIST 1 09 Dec 07:13:18 07:16:26 19° 86° (E) 07:19:34
CUTE-I 09 Dec 07:27:58 07:32:57 43° 283° (WNW) 07:37:58 437.470
PHONESAT 2.4 09 Dec 07:35:10 07:37:18 22° 43° (NE) 07:39:26 2401.200-2431.200
DOVE 4 09 Dec 07:37:54 07:42:29 37° 282° (WNW) 07:46:50 437.250
NOAA 15 09 Dec 07:40:53 07:45:17 27° 283° (WNW) 07:49:42 137.62
RS-15 09 Dec 07:45:15 07:55:24 40° 292° (WNW) 08:06:06 29.354- 29.394
CUTE 1.7 + AOD 2 09 Dec 07:45:35 07:48:51 22° 102° (ESE) 07:52:08 437.475
GOMX 1 09 Dec 07:46:24 07:48:16 12° 283° (WNW) 07:50:08 467.674
HO-68 09 Dec 07:50:07 07:56:42 39° 105° (ESE) 08:03:16 435.675
STRAND 1 09 Dec 07:53:04 07:58:13 70° 77° (ENE) 08:03:18 437.568
Cubesat XI-IV 09 Dec 07:56:02 07:59:57 21° 283° (WNW) 08:03:52 437.490
YUBILEINY 09 Dec 08:01:49 08:10:16 52° 267° (W) 08:18:46 435.215
CANX-2 09 Dec 08:03:25 08:07:31 49° 102° (ESE) 08:11:39 2200.000
Cosmos 2491 09 Dec 08:03:42 08:11:55 44° 273° (W) 08:20:05 435.465 / 435.565
NOAA 18 09 Dec 08:04:30 08:09:15 31° 283° (WNW) 08:14:01 137.9125
SEEDS 09 Dec 08:22:06 08:26:08 45° 102° (ESE) 08:30:12 437.485
COMPASS 1 09 Dec 08:26:39 08:30:20 30° 102° (ESE) 08:34:02 437.405
CUBEBUG 2 09 Dec 08:29:15 08:32:46 27° 101° (ESE) 08:36:17 437.445
CINEMA 3 09 Dec 08:32:56 08:37:01 37° 282° (WNW) 08:40:58 145.822/145.860
SRMSAT 09 Dec 08:43:56 08:49:58 80° 159° (SSE) 08:55:59 437.500
JUGNU 09 Dec 08:49:34 08:54:30 27° 342° (NNW) 08:59:27 437.505
AIST 1 09 Dec 08:51:09 08:53:44 16° 266° (W) 08:56:21
CUSAT 1 09 Dec 09:02:14 09:06:32 36° 99° (E) 09:09:53 437.405
Cosmos 2504 09 Dec 09:04:06 09:11:21 36° 268° (W) 09:18:13 435.465 / 435.565
UWE-3 09 Dec 09:04:16 09:08:16 49° 102° (ESE) 09:12:16 435.000/436.395/437.385
PRISM 09 Dec 09:15:38 09:18:55 24° 78° (ENE) 09:22:11 437.425
PCSat 09 Dec 09:16:32 09:19:19 14° 110° (ESE) 09:22:05 145.827
CUTE 1.7 + AOD 2 09 Dec 09:22:06 09:24:25 14° 281° (WNW) 09:26:46 437.475
AAUSAT CUBESAT 2 09 Dec 09:28:06 09:32:01 42° 281° (WNW) 09:35:59 437.432
ZACube-1 09 Dec 09:37:43 09:41:50 84° 102° (ESE) 09:46:00 437.345
HO-68 09 Dec 09:38:44 09:44:04 23° 285° (WNW) 09:49:27 435.675
FUNcube-1 09 Dec 09:43:28 09:47:35 89° 269° (W) 09:51:44 145.935
DELFI C3 09 Dec 09:57:59 10:01:37 34° 101° (ESE) 10:05:17 145.870
CUBEBUG 2 09 Dec 10:08:22 10:09:07 10° 282° (WNW) 10:09:53 437.445
Oscar 11 09 Dec 10:10:03 10:14:02 37° 281° (WNW) 10:18:02 145.826/435.025
DANDE 09 Dec 10:17:56 10:24:33 89° 92° (E) 10:29:26 436.750
SRMSAT 09 Dec 10:33:42 10:39:14 38° 340° (NNW) 10:44:44 437.500
HUMSAT D 09 Dec 10:36:13 10:40:13 55° 102° (ESE) 10:44:16 437.325/437.525
JUGNU 09 Dec 10:41:30 10:44:13 13° 350° (N) 10:46:55 437.505
UNISAT 6 09 Dec 10:47:15 10:51:57 78° 78° (ENE) 10:56:38 437.425
PRISM 09 Dec 10:52:29 10:53:56 12° 258° (WSW) 10:55:23 437.425
PCSat 09 Dec 10:57:30 11:02:27 37° 289° (WNW) 11:07:23 145.827
JAS-2 09 Dec 11:03:07 11:08:25 22° 79° (E) 11:13:17 435.910
ESTCUBE 1 09 Dec 11:10:20 11:12:27 13° 102° (ESE) 11:14:34 437.505/2401.250
TIGRISAT 09 Dec 11:16:20 11:20:49 46° 258° (WSW) 11:25:19 435.000
ANTELSAT 09 Dec 11:18:48 11:23:12 40° 258° (WSW) 11:27:34 437.575/2403.000
POPSAT HIP 1 09 Dec 11:27:00 11:29:08 14° 78° (ENE) 11:31:16 437.405
Cosmos 2499 09 Dec 11:54:29 12:00:22 23° 85° (E) 12:05:58 435.465 / 435.565
AO-85 09 Dec 12:16:06 12:19:45 39° 69° (ENE) 12:23:33 145.980
NANOSAT C BR1 09 Dec 12:16:58 12:21:13 73° 78° (ENE) 12:25:28 145.865
SRMSAT 09 Dec 12:25:09 12:28:52 17° 346° (NNW) 12:32:34 437.500
QB50P2 09 Dec 12:26:13 12:30:28 67° 258° (WSW) 12:34:43 145.880/145.840
POLYITAN 1 09 Dec 12:26:37 12:30:54 72° 259° (W) 12:35:10 437.675
AISAT 09 Dec 12:36:29 12:40:54 75° 101° (E) 12:45:20 437.250
DUCHIFAT 1 09 Dec 12:37:22 12:41:35 61° 259° (W) 12:45:46 145.980
QB50P1 09 Dec 12:38:40 12:42:47 47° 258° (WSW) 12:46:53 145.935-145.965
GONETS M04 09 Dec 12:39:34 12:48:05 57° 87° (E) 12:56:41
ESTCUBE 1 09 Dec 12:45:07 12:48:58 28° 282° (WNW) 12:52:51 437.505/2401.250
JAS-2 09 Dec 12:46:34 12:53:14 38° 255° (WSW) 12:59:14 435.910
CUBEBUG 1 09 Dec 12:53:39 12:57:44 38° 282° (WNW) 13:01:49 437.445
POPSAT HIP 1 09 Dec 13:01:13 13:04:38 24° 258° (WSW) 13:08:04 437.405
VELOX 1 09 Dec 13:13:29 13:17:31 35° 282° (WNW) 13:21:34 145.980
50 SAT 09 Dec 13:14:09 13:17:19 30° 281° (WNW) 13:20:32 437.505
DX 1 09 Dec 13:14:50 13:19:11 76° 282° (WNW) 13:23:34 434.975-435.025
UKube-1 09 Dec 13:15:05 13:19:23 73° 102° (ESE) 13:23:42 .
BUGSAT 1 09 Dec 13:20:10 13:24:14 50° 258° (WSW) 13:28:19 437.445
SPROUT 09 Dec 13:20:38 13:24:41 44° 282° (WNW) 13:28:44 437.525
Cosmos 2499 09 Dec 13:46:15 13:53:10 35° 268° (W) 13:59:42 435.465 / 435.565
ISS 09 Dec 13:47:43 13:50:33 27° 305° (NW) 13:53:23 145.825
Oscar 19 09 Dec 14:11:33 14:16:40 83° 257° (WSW) 14:21:48 437.125/150
JUGNU 09 Dec 14:21:34 14:24:33 14° 11° (N) 14:27:30 437.505
